Location: Famechon
(49.7599°N, 2.0615°E)
Time: 12:02:13
(UTC+00:00)

Cosmos 2333 Rocket - Pass Details

Date: 03 February 2023
Orbit: 837 x 864 km, 70.8° (Epoch: 23 March)

Event Time Altitude Azimuth Distance (km) Brightness Sun altitude
Rises 19:55:32 0° 225° (SW) 3,383 5.8 -30.1°
Reaches altitude 10° 19:58:02 10° 230° (SW) 2,455 5.0 -30.5°
Maximum altitude 20:03:30 51° 306° (NW) 1,062 2.9 -31.4°
Enters shadow 20:04:28 46° 338° (NNW) 1,132 2.9 -31.5°
